Weather History for Kendall, FL

Change the Weather History Date:

Thursday, November 7, 2013

  Actual Average Record
Temperature  
Mean Temperature 76 °F -  
Max Temperature 87 °F 82 °F 87 °F (1992)
Min Temperature 66 °F 63 °F 52 °F (2010)
Cooling Degree Days 12    
Growing Degree Days 26 (Base 50)    
Moisture  
Dew Point 68 °F    
Average Humidity 75    
Maximum Humidity 97    
Minimum Humidity 51    
Precipitation  
Precipitation 0.00 in - - ()
Sea Level Pressure  
Sea Level Pressure 29.97 in    
Wind  
Wind Speed 5 mph (NNE)    
Max Wind Speed 9 mph    
Max Gust Speed -    
Visibility 10 miles    
Events      
Averages and records for this station are not official NWS values.
T = Trace of Precipitation, MM = Missing Value Source: NWS Daily Summary

Daily Weather History Graph

Daily Weather History Graph

Search for Another Location

Airport:

Trip Planner

Search our weather history database for the weather conditions in past years. The results will help you decide how hot, cold, wet, or windy it might be!

Date:

Astronomy

Nov. 07, 2013 Rise Set
Actual Time 6:33 AM EST 5:36 PM EST
Civil Twilight 6:10 AM EST 6:00 PM EST
Nautical Twilight 5:42 AM EST 6:27 PM EST
Astronomical Twilight 5:15 AM EST 6:55 PM EST
Moon 10:36 AM EST (11/7) 9:50 PM EST (11/7)
Length of Visible Light 11h 50m
Length of Day
11h 02m
Waxing Crescent, 22% of the Moon is Illuminated
Nov 7
Waxing Crescent
Nov 10
First Quarter
Nov 17
Full
Nov 25
Last Quarter
Dec 2
New

Hourly Weather History & Observations

Time (EST) Temp. Heat Index Dew Point Humidity Pressure Visibility Wind Dir Wind Speed Gust Speed Precip Events Conditions
12:53 AM 71.1 °F - 68.0 °F 90% 30.00 in 10.0 mi ENE 4.6 mph - N/A   Clear
1:53 AM 71.1 °F - 68.0 °F 90% 29.98 in 10.0 mi Calm Calm - N/A   Clear
2:53 AM 70.0 °F - 68.0 °F 93% 29.97 in 10.0 mi North 3.5 mph - N/A   Clear
3:53 AM 71.1 °F - 69.1 °F 93% 29.96 in 10.0 mi Calm Calm - N/A   Clear
4:53 AM 69.1 °F - 68.0 °F 96% 29.96 in 10.0 mi North 3.5 mph - N/A   Clear
5:53 AM 66.9 °F - 66.0 °F 97% 29.97 in 10.0 mi Variable 3.5 mph - N/A   Clear
6:53 AM 71.1 °F - 69.1 °F 93% 29.99 in 10.0 mi North 8.1 mph - N/A   Clear
7:53 AM 75.0 °F - 70.0 °F 84% 30.00 in 10.0 mi North 6.9 mph - N/A   Clear
8:53 AM 78.1 °F - 70.0 °F 76% 30.02 in 10.0 mi NNW 5.8 mph - N/A   Clear
9:53 AM 82.0 °F 85.9 °F 70.0 °F 67% 30.02 in 10.0 mi NE 3.5 mph - N/A   Clear
10:53 AM 82.9 °F 87.0 °F 70.0 °F 65% 30.01 in 10.0 mi NE 8.1 mph - N/A   Scattered Clouds
11:53 AM 84.9 °F 88.2 °F 68.0 °F 57% 30.00 in 10.0 mi NNW 6.9 mph - N/A   Scattered Clouds
12:53 PM 86.0 °F 88.2 °F 66.0 °F 51% 29.97 in 10.0 mi NNW 4.6 mph - N/A   Scattered Clouds
1:53 PM 84.9 °F 86.6 °F 64.9 °F 51% 29.94 in 10.0 mi NNW 8.1 mph - N/A   Partly Cloudy
2:53 PM 87.1 °F 89.9 °F 66.9 °F 51% 29.93 in 10.0 mi NNW 9.2 mph - N/A   Scattered Clouds
3:53 PM 86.0 °F 88.2 °F 66.0 °F 51% 29.92 in 10.0 mi North 9.2 mph - N/A   Mostly Cloudy
4:53 PM 82.0 °F 85.9 °F 70.0 °F 67% 29.94 in 10.0 mi East 9.2 mph - N/A   Overcast
5:53 PM 80.1 °F 83.2 °F 70.0 °F 71% 29.95 in 10.0 mi East 4.6 mph - N/A   Mostly Cloudy
6:53 PM 80.1 °F 82.9 °F 69.1 °F 69% 29.96 in 10.0 mi NE 5.8 mph - N/A   Mostly Cloudy
7:53 PM 78.1 °F - 68.0 °F 71% 29.97 in 10.0 mi NE 6.9 mph - N/A   Partly Cloudy
8:53 PM 78.1 °F - 69.1 °F 74% 29.98 in 10.0 mi NE 5.8 mph - N/A   Clear
9:53 PM 77.0 °F - 69.1 °F 76% 29.98 in 10.0 mi NNE 6.9 mph - N/A   Clear
10:53 PM 75.9 °F - 70.0 °F 82% 29.97 in 10.0 mi NNE 6.9 mph - N/A   Clear
11:53 PM 73.9 °F - 69.1 °F 85% 29.97 in 10.0 mi North 4.6 mph - N/A   Clear